Weather History for Hyannis, MA

Change the Weather History Date:

Friday, November 30, 2012

  Actual Average Record
Temperature  
Mean Temperature 36 °F -  
Max Temperature 41 °F 47 °F 65 °F (1933)
Min Temperature 32 °F 31 °F 12 °F (1958)
Degree Days  
Heating Degree Days 28    
Moisture  
Dew Point 26 °F    
Average Humidity 65    
Maximum Humidity 76    
Minimum Humidity 57    
Precipitation  
Precipitation 0.00 in - - ()
Sea Level Pressure  
Sea Level Pressure 30.41 in    
Wind  
Wind Speed 10 mph (NNE)    
Max Wind Speed 16 mph    
Max Gust Speed 24 mph    
Visibility 10 miles    
Events      
Averages and records for this station are not official NWS values.
T = Trace of Precipitation, MM = Missing Value Source: NWS Daily Summary

Daily Weather History Graph

Daily Weather History Graph

Search for Another Location

Airport:

Trip Planner

Search our weather history database for the weather conditions in past years. The results will help you decide how hot, cold, wet, or windy it might be!

Date:

Astronomy

Nov. 30, 2012 Rise Set
Actual Time 6:48 AM EST 4:11 PM EST
Civil Twilight 6:17 AM EST 4:42 PM EST
Nautical Twilight 5:42 AM EST 5:17 PM EST
Astronomical Twilight 5:09 AM EST 5:50 PM EST
Moon 6:03 PM EST (11/30) 8:17 AM EST (11/30)
Length of Visible Light 10h 25m
Length of Day
9h 23m
Waning Gibbous, 96% of the Moon is Illuminated
Nov 30
Waning Gibbous
Dec 6
Last Quarter
Dec 13
New
Dec 20
First Quarter
Dec 28
Full

Hourly Weather History & Observations

Time (EST) Temp. Windchill Dew Point Humidity Pressure Visibility Wind Dir Wind Speed Gust Speed Precip Events Conditions
12:56 AM 41.0 °F 33.5 °F 28.0 °F 60% 30.24 in 10.0 mi West 13.8 mph - N/A   Mostly Cloudy
1:56 AM 39.9 °F 32.9 °F 27.0 °F 60% 30.25 in 10.0 mi West 11.5 mph - N/A   Clear
2:56 AM 39.0 °F 33.4 °F 26.1 °F 60% 30.25 in 10.0 mi West 8.1 mph - N/A   Clear
3:56 AM 37.9 °F 32.7 °F 26.1 °F 62% 30.27 in 10.0 mi West 6.9 mph - N/A   Clear
4:56 AM 37.0 °F 31.6 °F 26.1 °F 65% 30.30 in 10.0 mi NNW 6.9 mph - N/A   Clear
5:56 AM 37.9 °F 32.7 °F 28.9 °F 70% 30.32 in 10.0 mi North 6.9 mph - N/A   Clear
6:56 AM 37.9 °F 30.5 °F 30.9 °F 76% 30.35 in 10.0 mi North 11.5 mph - N/A   Partly Cloudy
7:46 AM 37.4 °F 29.8 °F 30.2 °F 75% 30.37 in 10.0 mi North 11.5 mph - N/A   Mostly Cloudy
7:56 AM 37.9 °F 30.5 °F 30.9 °F 76% 30.38 in 10.0 mi North 11.5 mph 23.0 mph N/A   Mostly Cloudy
8:26 AM 37.4 °F 28.2 °F 26.6 °F 65% 30.39 in 10.0 mi North 16.1 mph 24.2 mph N/A   Scattered Clouds
8:56 AM 39.0 °F 31.4 °F 25.0 °F 57% 30.40 in 10.0 mi North 12.7 mph 21.9 mph N/A   Clear
9:54 AM 39.2 °F 31.2 °F 28.4 °F 65% 30.41 in 10.0 mi North 13.8 mph - N/A   Mostly Cloudy
9:56 AM 39.0 °F 31.8 °F 28.9 °F 67% 30.42 in 10.0 mi NNE 11.5 mph 20.7 mph N/A   Mostly Cloudy
10:56 AM 37.9 °F 29.6 °F 28.0 °F 68% 30.42 in 10.0 mi NNE 13.8 mph 20.7 mph N/A   Overcast
11:56 AM 37.9 °F 30.0 °F 26.1 °F 62% 30.42 in 10.0 mi NNE 12.7 mph 19.6 mph N/A   Overcast
12:53 PM 35.6 °F 27.5 °F 24.8 °F 65% 30.42 in 10.0 mi NE 11.5 mph 20.7 mph N/A   Scattered Clouds
12:56 PM 37.0 °F 29.3 °F 24.1 °F 59% 30.42 in 10.0 mi NE 11.5 mph 19.6 mph N/A   Mostly Cloudy
1:56 PM 36.0 °F 27.1 °F 24.1 °F 62% 30.43 in 10.0 mi NE 13.8 mph - N/A   Overcast
2:56 PM 35.1 °F 28.6 °F 23.0 °F 61% 30.45 in 10.0 mi NNE 8.1 mph - N/A   Overcast
3:56 PM 33.1 °F 26.9 °F 23.0 °F 66% 30.46 in 10.0 mi NNE 6.9 mph - N/A   Overcast
4:56 PM 33.1 °F 25.5 °F 21.9 °F 64% 30.48 in 10.0 mi NE 9.2 mph - N/A   Overcast
5:56 PM 32.0 °F 26.4 °F 21.0 °F 64% 30.49 in 10.0 mi NE 5.8 mph - N/A   Mostly Cloudy
6:56 PM 32.0 °F 28.7 °F 21.9 °F 66% 30.50 in 10.0 mi NE 3.5 mph - N/A   Overcast
7:56 PM 33.1 °F 28.7 °F 23.0 °F 66% 30.53 in 10.0 mi NE 4.6 mph - N/A   Overcast
8:56 PM 33.1 °F 28.7 °F 21.9 °F 64% 30.53 in 10.0 mi ENE 4.6 mph - N/A   Overcast
10:56 PM 33.1 °F 28.7 °F 21.9 °F 64% 30.53 in 10.0 mi NNE 4.6 mph - N/A   Overcast
11:56 PM 33.1 °F 30.0 °F 21.9 °F 64% 30.53 in 10.0 mi NNE 3.5 mph - N/A   Overcast